Time,TemperatureF,DewpointF,PressureIn,WindDirection,WindDirectionDegrees,WindSpeedMPH,WindSpeedGustMPH,Humidity,HourlyPrecipIn,Conditions,Clouds,dailyrainin,SoftwareType,DateUTC
2013-05-31 00:02:00,77.3,72.0,30.06,East,85,5.0,16.0,83,0.00,,,0.00,weatherlink.com 1.10,2013-05-31 04:02:00,
2013-05-31 00:17:00,76.6,72.0,30.05,ESE,102,4.0,23.0,84,0.00,,,0.00,weatherlink.com 1.10,2013-05-31 04:17:00,
2013-05-31 00:32:00,76.9,72.0,30.05,SE,126,3.0,23.0,84,0.00,,,0.00,weatherlink.com 1.10,2013-05-31 04:32:00,
2013-05-31 00:47:00,77.6,73.0,30.04,East,98,4.0,23.0,84,0.00,,,0.00,weatherlink.com 1.10,2013-05-31 04:47:00,
2013-05-31 01:02:00,77.8,73.0,30.04,ESE,105,3.0,21.0,84,0.00,,,0.00,weatherlink.com 1.10,2013-05-31 05:02:00,
2013-05-31 01:17:00,77.6,72.0,30.04,ESE,121,0.0,18.0,83,0.00,,,0.00,weatherlink.com 1.10,2013-05-31 05:17:00,
2013-05-31 01:32:00,77.8,72.0,30.04,SE,130,0.0,19.0,82,0.00,,,0.00,weatherlink.com 1.10,2013-05-31 05:32:00,
2013-05-31 01:47:00,78.2,72.0,30.03,East,96,4.0,19.0,80,0.00,,,0.00,weatherlink.com 1.10,2013-05-31 05:47:00,
2013-05-31 02:03:00,78.4,71.0,30.02,SE,143,9.0,19.0,79,0.00,,,0.00,weatherlink.com 1.10,2013-05-31 06:03:00,
2013-05-31 02:17:00,78.4,71.0,30.02,East,83,7.0,21.0,79,0.00,,,0.00,weatherlink.com 1.10,2013-05-31 06:17:00,
2013-05-31 02:32:00,78.0,72.0,30.02,SSE,165,10.0,18.0,82,0.00,,,0.00,weatherlink.com 1.10,2013-05-31 06:32:00,
2013-05-31 02:47:00,77.6,72.0,30.01,ESE,115,3.0,18.0,83,0.00,,,0.00,weatherlink.com 1.10,2013-05-31 06:47:00,
2013-05-31 03:02:00,76.9,72.0,30.01,East,87,5.0,22.0,85,0.00,,,0.00,weatherlink.com 1.10,2013-05-31 07:02:00,
2013-05-31 03:17:00,76.9,72.0,30.01,East,88,6.0,17.0,85,0.00,,,0.00,weatherlink.com 1.10,2013-05-31 07:17:00,
2013-05-31 03:32:00,76.9,73.0,30.01,SE,128,0.0,17.0,86,0.01,,,0.01,weatherlink.com 1.10,2013-05-31 07:32:00,
2013-05-31 03:47:00,76.0,72.0,30.01,ESE,110,10.0,21.0,87,0.01,,,0.01,weatherlink.com 1.10,2013-05-31 07:47:00,
2013-05-31 04:03:00,76.4,73.0,30.01,East,100,1.0,15.0,88,0.01,,,0.01,weatherlink.com 1.10,2013-05-31 08:03:00,
2013-05-31 04:18:00,76.7,73.0,30.01,ESE,109,1.0,15.0,87,0.01,,,0.01,weatherlink.com 1.10,2013-05-31 08:18:00,
2013-05-31 04:33:00,77.3,73.0,30.01,East,90,1.0,12.0,85,0.00,,,0.01,weatherlink.com 1.10,2013-05-31 08:33:00,
2013-05-31 04:48:00,76.9,72.0,30.01,ESE,110,2.0,16.0,85,0.00,,,0.01,weatherlink.com 1.10,2013-05-31 08:48:00,
2013-05-31 05:03:00,77.1,73.0,30.01,East,100,4.0,14.0,86,0.00,,,0.01,weatherlink.com 1.10,2013-05-31 09:03:00,
2013-05-31 05:18:00,77.3,72.0,30.02,East,100,0.0,13.0,84,0.00,,,0.01,weatherlink.com 1.10,2013-05-31 09:18:00,
2013-05-31 05:33:00,77.5,72.0,30.02,SE,124,4.0,13.0,84,0.00,,,0.01,weatherlink.com 1.10,2013-05-31 09:33:00,
2013-05-31 05:48:00,77.8,73.0,30.02,ESE,109,0.0,12.0,84,0.00,,,0.01,weatherlink.com 1.10,2013-05-31 09:48:00,
2013-05-31 06:03:00,77.6,73.0,30.02,ESE,106,0.0,9.0,84,0.00,,,0.01,weatherlink.com 1.10,2013-05-31 10:03:00,
2013-05-31 06:18:00,77.5,73.0,30.03,ESE,103,7.0,18.0,85,0.00,,,0.01,weatherlink.com 1.10,2013-05-31 10:18:00,
2013-05-31 06:33:00,76.7,73.0,30.03,East,86,2.0,8.0,89,0.00,,,0.01,weatherlink.com 1.10,2013-05-31 10:33:00,
2013-05-31 06:51:00,76.4,73.0,30.02,East,92,3.0,14.0,89,0.01,,,0.02,weatherlink.com 1.10,2013-05-31 10:51:00,
2013-05-31 07:03:00,76.7,73.0,30.02,East,96,4.0,15.0,87,0.01,,,0.02,weatherlink.com 1.10,2013-05-31 11:03:00,
2013-05-31 07:18:00,77.3,73.0,30.03,ESE,103,7.0,15.0,85,0.01,,,0.02,weatherlink.com 1.10,2013-05-31 11:18:00,
2013-05-31 07:33:00,77.5,73.0,30.04,ESE,106,0.0,8.0,85,0.01,,,0.02,weatherlink.com 1.10,2013-05-31 11:33:00,
2013-05-31 07:48:00,78.2,73.0,30.04,SE,127,6.0,11.0,83,0.00,,,0.02,weatherlink.com 1.10,2013-05-31 11:48:00,
2013-05-31 08:03:00,78.7,73.0,30.05,SE,131,7.0,16.0,82,0.00,,,0.02,weatherlink.com 1.10,2013-05-31 12:03:00,
2013-05-31 08:18:00,78.9,73.0,30.05,SSE,156,7.0,14.0,82,0.00,,,0.02,weatherlink.com 1.10,2013-05-31 12:18:00,
2013-05-31 08:33:00,79.1,73.0,30.05,ESE,116,2.0,18.0,82,0.00,,,0.02,weatherlink.com 1.10,2013-05-31 12:33:00,
2013-05-31 08:48:00,79.3,73.0,30.05,ESE,104,1.0,13.0,81,0.00,,,0.02,weatherlink.com 1.10,2013-05-31 12:48:00,
2013-05-31 09:03:00,80.2,73.0,30.05,East,93,9.0,15.0,79,0.00,,,0.02,weatherlink.com 1.10,2013-05-31 13:03:00,
2013-05-31 09:18:00,80.2,74.0,30.05,ESE,108,3.0,18.0,80,0.00,,,0.02,weatherlink.com 1.10,2013-05-31 13:18:00,
2013-05-31 09:33:00,80.8,73.0,30.04,East,89,10.0,15.0,78,0.00,,,0.02,weatherlink.com 1.10,2013-05-31 13:33:00,
2013-05-31 09:48:00,80.0,74.0,30.04,SE,133,7.0,19.0,81,0.00,,,0.02,weatherlink.com 1.10,2013-05-31 13:48:00,
2013-05-31 10:03:00,79.5,73.0,30.04,East,92,12.0,22.0,79,0.00,,,0.02,weatherlink.com 1.10,2013-05-31 14:03:00,
2013-05-31 10:18:00,81.0,73.0,30.05,SE,126,6.0,21.0,77,0.00,,,0.02,weatherlink.com 1.10,2013-05-31 14:18:00,
2013-05-31 10:35:00,81.3,73.0,30.05,ESE,123,2.0,19.0,76,0.00,,,0.02,weatherlink.com 1.10,2013-05-31 14:35:00,
2013-05-31 10:48:00,81.0,74.0,30.05,East,89,7.0,15.0,78,0.00,,,0.02,weatherlink.com 1.10,2013-05-31 14:48:00,
2013-05-31 11:03:00,80.8,73.0,30.05,East,96,4.0,19.0,77,0.00,,,0.02,weatherlink.com 1.10,2013-05-31 15:03:00,
2013-05-31 11:18:00,81.3,73.0,30.05,East,85,9.0,18.0,75,0.00,,,0.02,weatherlink.com 1.10,2013-05-31 15:18:00,
2013-05-31 11:33:00,81.9,74.0,30.05,ESE,109,2.0,21.0,76,0.00,,,0.02,weatherlink.com 1.10,2013-05-31 15:33:00,
2013-05-31 11:48:00,82.5,74.0,30.05,East,98,4.0,17.0,75,0.00,,,0.02,weatherlink.com 1.10,2013-05-31 15:48:00,
2013-05-31 12:03:00,82.1,74.0,30.05,East,89,10.0,18.0,75,0.00,,,0.02,weatherlink.com 1.10,2013-05-31 16:03:00,
2013-05-31 12:18:00,81.9,73.0,30.05,East,95,16.0,19.0,75,0.00,,,0.02,weatherlink.com 1.10,2013-05-31 16:18:00,
2013-05-31 12:33:00,82.7,74.0,30.05,ESE,123,3.0,15.0,75,0.00,,,0.02,weatherlink.com 1.10,2013-05-31 16:33:00,
2013-05-31 12:48:00,81.9,74.0,30.05,ESE,104,7.0,18.0,77,0.00,,,0.02,weatherlink.com 1.10,2013-05-31 16:48:00,
2013-05-31 13:03:00,81.9,74.0,30.05,East,87,3.0,18.0,76,0.00,,,0.02,weatherlink.com 1.10,2013-05-31 17:03:00,
2013-05-31 13:18:00,81.5,73.0,30.05,ESE,108,7.0,22.0,76,0.00,,,0.02,weatherlink.com 1.10,2013-05-31 17:18:00,
2013-05-31 13:33:00,81.9,73.0,30.05,SE,139,10.0,21.0,75,0.00,,,0.02,weatherlink.com 1.10,2013-05-31 17:33:00,
2013-05-31 13:48:00,82.3,74.0,30.05,SE,130,7.0,17.0,76,0.00,,,0.02,weatherlink.com 1.10,2013-05-31 17:48:00,
2013-05-31 14:03:00,81.0,74.0,30.04,East,91,8.0,19.0,78,0.00,,,0.02,weatherlink.com 1.10,2013-05-31 18:03:00,
2013-05-31 14:18:00,81.7,73.0,30.04,ESE,115,9.0,21.0,76,0.00,,,0.02,weatherlink.com 1.10,2013-05-31 18:18:00,
2013-05-31 14:33:00,82.5,74.0,30.03,ENE,74,5.0,14.0,75,0.00,,,0.02,weatherlink.com 1.10,2013-05-31 18:33:00,
2013-05-31 14:48:00,80.8,73.0,30.03,ENE,67,17.0,19.0,78,0.00,,,0.02,weatherlink.com 1.10,2013-05-31 18:48:00,
2013-05-31 15:03:00,81.0,74.0,30.02,East,91,5.0,22.0,79,0.00,,,0.02,weatherlink.com 1.10,2013-05-31 19:03:00,
2013-05-31 15:18:00,81.9,74.0,30.02,ESE,106,5.0,17.0,77,0.00,,,0.02,weatherlink.com 1.10,2013-05-31 19:18:00,
2013-05-31 15:33:00,81.1,73.0,30.01,NE,39,4.0,16.0,77,0.00,,,0.02,weatherlink.com 1.10,2013-05-31 19:33:00,
2013-05-31 15:48:00,81.5,73.0,30.01,ESE,108,9.0,17.0,76,0.00,,,0.02,weatherlink.com 1.10,2013-05-31 19:48:00,
2013-05-31 16:03:00,81.5,73.0,30.01,ENE,75,8.0,18.0,76,0.00,,,0.02,weatherlink.com 1.10,2013-05-31 20:03:00,
2013-05-31 16:18:00,81.3,74.0,30.01,ENE,72,14.0,21.0,79,0.00,,,0.02,weatherlink.com 1.10,2013-05-31 20:18:00,
2013-05-31 16:33:00,81.5,74.0,30.01,East,96,9.0,16.0,79,0.00,,,0.02,weatherlink.com 1.10,2013-05-31 20:33:00,
2013-05-31 16:48:00,80.8,73.0,30.01,East,81,15.0,17.0,78,0.00,,,0.02,weatherlink.com 1.10,2013-05-31 20:48:00,
2013-05-31 17:03:00,80.2,74.0,30.01,SSE,161,7.0,21.0,82,0.00,,,0.02,weatherlink.com 1.10,2013-05-31 21:03:00,
2013-05-31 17:20:00,78.9,74.0,30.01,ESE,103,5.0,13.0,86,0.03,,,0.05,weatherlink.com 1.10,2013-05-31 21:20:00,
2013-05-31 17:33:00,78.7,74.0,30.00,East,99,9.0,22.0,85,0.03,,,0.05,weatherlink.com 1.10,2013-05-31 21:33:00,
2013-05-31 17:48:00,78.0,73.0,30.00,East,81,13.0,18.0,85,0.03,,,0.05,weatherlink.com 1.10,2013-05-31 21:48:00,
2013-05-31 18:03:00,78.5,74.0,30.00,East,94,5.0,11.0,87,0.03,,,0.05,weatherlink.com 1.10,2013-05-31 22:03:00,
2013-05-31 18:18:00,79.3,75.0,30.00,East,98,1.0,15.0,86,0.00,,,0.05,weatherlink.com 1.10,2013-05-31 22:18:00,
2013-05-31 18:33:00,78.7,74.0,30.00,East,94,7.0,15.0,86,0.00,,,0.05,weatherlink.com 1.10,2013-05-31 22:33:00,
2013-05-31 18:48:00,78.7,75.0,30.01,East,92,5.0,16.0,87,0.00,,,0.05,weatherlink.com 1.10,2013-05-31 22:48:00,
2013-05-31 19:03:00,78.7,74.0,30.01,East,91,4.0,19.0,86,0.00,,,0.05,weatherlink.com 1.10,2013-05-31 23:03:00,
2013-05-31 19:18:00,78.9,74.0,30.01,East,96,10.0,18.0,85,0.00,,,0.05,weatherlink.com 1.10,2013-05-31 23:18:00,
2013-05-31 19:33:00,78.5,73.0,30.01,ENE,74,2.0,15.0,84,0.00,,,0.05,weatherlink.com 1.10,2013-05-31 23:33:00,
2013-05-31 19:48:00,78.9,74.0,30.02,East,100,0.0,10.0,84,0.00,,,0.05,weatherlink.com 1.10,2013-05-31 23:48:00,
2013-05-31 20:03:00,78.9,73.0,30.02,East,100,3.0,11.0,83,0.00,,,0.05,weatherlink.com 1.10,2013-06-01 00:03:00,
2013-05-31 20:18:00,78.9,74.0,30.02,ESE,102,0.0,7.0,84,0.00,,,0.05,weatherlink.com 1.10,2013-06-01 00:18:00,
2013-05-31 20:33:00,79.1,74.0,30.02,ESE,108,0.0,12.0,85,0.00,,,0.05,weatherlink.com 1.10,2013-06-01 00:33:00,
2013-05-31 20:48:00,78.9,74.0,30.02,SE,127,3.0,10.0,85,0.00,,,0.05,weatherlink.com 1.10,2013-06-01 00:48:00,
2013-05-31 21:03:00,79.1,74.0,30.02,East,98,4.0,9.0,84,0.00,,,0.05,weatherlink.com 1.10,2013-06-01 01:03:00,
2013-05-31 21:18:00,79.1,74.0,30.02,East,85,0.0,9.0,83,0.00,,,0.05,weatherlink.com 1.10,2013-06-01 01:18:00,
2013-05-31 21:33:00,79.3,74.0,30.02,East,90,0.0,7.0,83,0.00,,,0.05,weatherlink.com 1.10,2013-06-01 01:33:00,
2013-05-31 21:48:00,79.3,74.0,30.02,SE,126,0.0,8.0,83,0.00,,,0.05,weatherlink.com 1.10,2013-06-01 01:48:00,
2013-05-31 22:03:00,79.3,74.0,30.02,ESE,122,0.0,9.0,83,0.00,,,0.05,weatherlink.com 1.10,2013-06-01 02:03:00,
2013-05-31 22:18:00,79.1,74.0,30.03,East,92,5.0,10.0,84,0.00,,,0.05,weatherlink.com 1.10,2013-06-01 02:18:00,
2013-05-31 22:33:00,79.1,74.0,30.03,ESE,106,0.0,7.0,83,0.00,,,0.05,weatherlink.com 1.10,2013-06-01 02:33:00,
2013-05-31 22:48:00,79.3,73.0,30.03,ESE,117,2.0,10.0,82,0.00,,,0.05,weatherlink.com 1.10,2013-06-01 02:48:00,
2013-05-31 23:03:00,79.5,74.0,30.04,East,91,5.0,14.0,84,0.00,,,0.05,weatherlink.com 1.10,2013-06-01 03:03:00,
2013-05-31 23:18:00,78.7,75.0,30.04,ESE,104,3.0,16.0,87,0.01,,,0.06,weatherlink.com 1.10,2013-06-01 03:18:00,
2013-05-31 23:33:00,78.4,75.0,30.04,SE,135,4.0,13.0,88,0.01,,,0.06,weatherlink.com 1.10,2013-06-01 03:33:00,
2013-05-31 23:48:00,78.4,75.0,30.04,ESE,123,1.0,13.0,89,0.01,,,0.06,weatherlink.com 1.10,2013-06-01 03:48:00,